Location: Cluny
(50.9333°N, 112.8167°W)
Time: 13:15:39
(UTC-07:00)

Amateur Radio Satellites - All Passes

Search period start: 20 December 2014 12:45
Search period end: 21 December 2014 12:45
Location: Cluny, 50.9333°N, 112.8167°W

Satellite Date Start Highest point End Downlink Frequencies (MHz)
Time Altitude Azimuth
CUBEBUG 1 20 Dec 12:46:37 12:50:41 40° 293° (WNW) 12:54:44 437.445
SWISSCUBE 20 Dec 12:57:09 13:00:19 17° 89° (E) 13:03:28 437.505
ITUPSAT 1 20 Dec 12:57:41 13:00:38 16° 88° (E) 13:03:34 437.325
HUMSAT D 20 Dec 12:59:40 13:02:02 15° 303° (WNW) 13:04:24 437.325/437.525
RS-15 20 Dec 13:01:35 13:12:28 79° 126° (SE) 13:23:30 29.354- 29.394
Oscar 19 20 Dec 13:13:49 13:18:57 74° 256° (WSW) 13:24:10 437.125/150
PCSat 20 Dec 13:15:12 13:18:28 16° 105° (ESE) 13:21:44 145.827
BEESAT 20 Dec 13:21:38 13:25:39 26° 93° (E) 13:29:38 436.000
Gurwin Techsat 1B 20 Dec 13:23:17 13:28:12 40° 65° (ENE) 13:33:09 435.225
HORYU 2 20 Dec 13:27:03 13:30:05 18° 57° (ENE) 13:33:07 437.375
ITAMSAT 1 20 Dec 13:29:05 13:34:13 67° 70° (ENE) 13:39:22 435.822/435.867
ESTCUBE 1 20 Dec 13:35:50 13:38:46 17° 303° (WNW) 13:41:41 437.505/2401.250
BEESAT 3 20 Dec 13:43:24 13:47:06 33° 120° (ESE) 13:50:51 437.485
JAS-2 20 Dec 13:48:33 13:49:44 11° 40° (NE) 13:50:54 435.910
AIST 2 20 Dec 13:50:05 13:53:06 19° 114° (ESE) 13:56:08 435.215
TISAT 1 20 Dec 13:52:55 13:56:39 31° 295° (WNW) 14:00:24 437.305
SPROUT 20 Dec 13:55:35 13:59:24 32° 295° (WNW) 14:03:13 437.525
AO-7 20 Dec 13:55:52 14:03:06 35° 50° (NE) 14:10:22 29.400- 29.500
AUBIESAT-1 20 Dec 14:21:16 14:25:09 29° 99° (E) 14:28:44 437.475
BEESAT 2 20 Dec 14:22:37 14:26:43 65° 127° (SE) 14:30:54 435.950
STARS 20 Dec 14:25:24 14:28:21 17° 90° (E) 14:31:18 437.465
KKS-1 20 Dec 14:28:12 14:31:57 26° 94° (E) 14:35:41 437.445
SWISSCUBE 20 Dec 14:33:56 14:38:43 72° 288° (WNW) 14:43:27 437.505
ITUPSAT 1 20 Dec 14:34:19 14:39:07 77° 287° (WNW) 14:43:53 437.325
GONETS M04 20 Dec 14:44:41 14:50:39 19° 49° (NE) 14:56:34
M-CUBED/EXP-1 PRIME 20 Dec 14:46:30 14:50:57 54° 106° (ESE) 14:55:00 437.505
PCSat 20 Dec 14:55:39 15:01:05 84° 125° (SE) 15:06:33 145.827
Oscar 19 20 Dec 14:57:19 14:59:14 12° 276° (W) 15:01:09 437.125/150
BEESAT 20 Dec 14:59:08 15:03:43 47° 292° (WNW) 15:08:16 436.000
HORYU 2 20 Dec 15:01:47 15:06:15 72° 257° (WSW) 15:10:47 437.375
ISS 20 Dec 15:02:08 15:05:12 37° 152° (SSE) 15:08:17 145.825
Gurwin Techsat 1B 20 Dec 15:03:21 15:08:14 36° 264° (W) 15:13:08 435.225
ITAMSAT 1 20 Dec 15:10:19 15:14:11 21° 270° (W) 15:18:05 435.822/435.867
RS-15 20 Dec 15:15:15 15:25:46 50° 334° (NNW) 15:36:34 29.354- 29.394
BEESAT 3 20 Dec 15:21:16 15:25:13 42° 320° (NW) 15:29:13 437.485
JAS-2 20 Dec 15:26:29 15:33:10 38° 62° (ENE) 15:39:15 435.910
AIST 2 20 Dec 15:27:00 15:31:16 71° 313° (NW) 15:35:36 435.215
AO-7 20 Dec 15:46:57 15:55:17 77° 252° (WSW) 16:03:42 29.400- 29.500
AUBIESAT-1 20 Dec 15:56:01 16:00:13 39° 300° (WNW) 16:04:05 437.475
STARS 20 Dec 16:00:52 16:05:16 65° 289° (WNW) 16:09:40 437.465
BEESAT 2 20 Dec 16:01:45 16:05:20 27° 328° (NNW) 16:08:57 435.950
KKS-1 20 Dec 16:04:31 16:08:46 43° 292° (WNW) 16:13:00 437.445
AIST 1 20 Dec 16:08:57 16:12:28 24° 88° (E) 16:15:59
SWISSCUBE 20 Dec 16:13:33 16:15:46 13° 308° (NW) 16:17:58 437.505
ITUPSAT 1 20 Dec 16:13:47 16:16:15 14° 307° (NW) 16:18:43 437.325
M-CUBED/EXP-1 PRIME 20 Dec 16:22:00 16:25:37 24° 307° (NW) 16:29:01 437.505
Cubesat XI-IV 20 Dec 16:24:57 16:29:04 23° 57° (ENE) 16:33:10 437.490
ISS 20 Dec 16:38:20 16:41:39 85° 349° (N) 16:44:57 145.825
PCSat 20 Dec 16:40:31 16:45:09 28° 327° (NNW) 16:49:48 145.827
GONETS M04 20 Dec 16:40:46 16:49:33 66° 75° (ENE) 16:58:12
CUTE-I 20 Dec 16:57:14 17:02:06 38° 63° (ENE) 17:06:58 437.470
BEESAT 3 20 Dec 17:01:54 17:04:26 15° 342° (NNW) 17:06:59 437.485
AIST 2 20 Dec 17:07:23 17:10:38 20° 335° (NNW) 17:13:53 435.215
JAS-2 20 Dec 17:10:34 17:18:00 59° 260° (W) 17:24:46 435.910
MOZHAYETS 4 20 Dec 17:13:10 17:17:38 44° 98° (E) 17:22:03
MaSat-1 20 Dec 17:29:40 17:31:41 26° 51° (NE) 17:33:48 437.345
RS-15 20 Dec 17:30:52 17:41:06 41° 8° (N) 17:51:40 29.354- 29.394
HO-68 20 Dec 17:31:26 17:34:20 13° 35° (NE) 17:37:14 435.675
STARS 20 Dec 17:39:42 17:40:55 11° 308° (NW) 17:42:08 437.465
BEESAT 2 20 Dec 17:42:54 17:44:56 13° 351° (N) 17:46:58 435.950
AO-7 20 Dec 17:43:51 17:49:30 20° 274° (W) 17:55:12 29.400- 29.500
AIST 1 20 Dec 17:45:47 17:49:56 41° 287° (WNW) 17:54:04
PRISM 20 Dec 17:58:22 18:01:29 20° 92° (E) 18:04:34 437.425
Cubesat XI-IV 20 Dec 18:03:23 18:08:42 70° 257° (WSW) 18:14:02 437.490
ISS 20 Dec 18:15:00 18:18:19 88° 10° (N) 18:21:36 145.825
CUSAT 1 20 Dec 18:17:31 18:21:41 16° 50° (NE) 18:26:11 437.405
PCSat 20 Dec 18:27:21 18:30:25 15° 353° (N) 18:33:30 145.827
CUBESAT XI-V 20 Dec 18:36:31 18:40:26 27° 93° (E) 18:44:20 437.345
CUTE-I 20 Dec 18:37:12 18:42:10 39° 263° (W) 18:47:09 437.470
GONETS M04 20 Dec 18:38:14 18:45:50 35° 278° (W) 18:53:23
BEESAT 3 20 Dec 18:42:23 18:44:17 13° 7° (N) 18:46:10 437.485
STRAND 1 20 Dec 18:47:21 18:51:48 29° 94° (E) 18:56:12 437.568
AIST 2 20 Dec 18:48:48 18:50:49 13° 359° (N) 18:52:50 435.215
MOZHAYETS 4 20 Dec 18:50:46 18:54:41 27° 297° (WNW) 18:58:34
JAS-2 20 Dec 19:01:17 19:04:18 13° 279° (W) 19:07:13 435.910
MaSat-1 20 Dec 19:03:31 19:04:50 14° 248° (WSW) 19:06:10 437.345
GOMX 1 20 Dec 19:04:57 19:06:44 13° 55° (NE) 19:08:33 467.674
DANDE 20 Dec 19:08:39 19:14:32 26° 60° (ENE) 19:21:15 436.750
HO-68 20 Dec 19:13:39 19:20:15 41° 58° (ENE) 19:26:51 435.675
BEESAT 2 20 Dec 19:22:26 19:24:52 15° 15° (NNE) 19:27:17 435.950
DOVE 4 20 Dec 19:29:03 19:31:35 16° 57° (ENE) 19:34:10 437.250
AAUSAT CUBESAT 2 20 Dec 19:29:48 19:32:40 18° 59° (ENE) 19:35:32 437.432
PRISM 20 Dec 19:33:15 19:37:18 49° 291° (WNW) 19:41:17 437.425
CANX-2 20 Dec 19:42:29 19:46:22 34° 66° (ENE) 19:50:17 2200.000
RS-15 20 Dec 19:44:41 19:55:48 67° 39° (NE) 20:07:21 29.354- 29.394
Cubesat XI-IV 20 Dec 19:47:59 19:49:47 12° 276° (W) 19:51:35 437.490
ISS 20 Dec 19:51:43 19:54:42 32° 210° (SSW) 19:57:40 145.825
CINEMA 3 20 Dec 19:53:24 19:56:09 17° 58° (ENE) 19:58:58 145.822/145.860
CUSAT 1 20 Dec 19:59:09 20:06:19 53° 71° (ENE) 20:14:32 437.405
COMPASS 1 20 Dec 20:03:53 20:07:49 38° 68° (ENE) 20:11:47 437.405
SEEDS 20 Dec 20:09:23 20:13:30 50° 70° (ENE) 20:17:40 437.485
PCSat 20 Dec 20:12:19 20:16:02 18° 19° (NNE) 20:19:45 145.827
CUTE 1.7 + AOD 2 20 Dec 20:12:53 20:17:06 61° 72° (ENE) 20:21:22 437.475
FUNcube-1 20 Dec 20:13:35 20:15:43 14° 55° (NE) 20:17:51 145.935
CUBESAT XI-V 20 Dec 20:13:41 20:18:03 43° 292° (WNW) 20:22:23 437.345
UWE-3 20 Dec 20:14:08 20:16:42 16° 57° (ENE) 20:19:18 435.000/436.395/437.385
BRITE-PL 20 Dec 20:14:12 20:18:19 67° 73° (ENE) 20:22:29 437.365/2234.400
DELFI C3 20 Dec 20:20:20 20:23:39 24° 63° (ENE) 20:26:59 145.870
BEESAT 3 20 Dec 20:20:24 20:23:52 24° 30° (NNE) 20:27:19 437.485
STRAND 1 20 Dec 20:26:19 20:31:11 47° 293° (WNW) 20:36:02 437.568
AIST 2 20 Dec 20:27:53 20:31:03 19° 23° (NNE) 20:34:11 435.215
DX 1 20 Dec 20:28:03 20:31:47 29° 63° (ENE) 20:35:32 434.975-435.025
AISAT 20 Dec 20:32:12 20:34:31 14° 55° (NE) 20:36:49 437.250
SO-50 20 Dec 20:35:00 20:37:26 14° 110° (ESE) 20:39:53 436.795
GOMX 1 20 Dec 20:40:04 20:44:12 87° 75° (ENE) 20:48:28 467.674
HUMSAT D 20 Dec 20:45:51 20:48:29 17° 58° (ENE) 20:51:10 437.325/437.525
Oscar 11 20 Dec 20:49:42 20:53:55 52° 70° (ENE) 20:58:11 145.826/435.025
DANDE 20 Dec 20:51:28 20:58:48 88° 78° (ENE) 21:07:27 436.750
UKube-1 20 Dec 20:58:22 21:02:34 52° 69° (ENE) 21:06:48 .
BEESAT 2 20 Dec 21:00:17 21:04:15 37° 38° (NE) 21:08:09 435.950
HO-68 20 Dec 21:00:50 21:07:50 54° 259° (W) 21:14:52 435.675
AAUSAT CUBESAT 2 20 Dec 21:03:43 21:07:54 64° 258° (WSW) 21:12:09 437.432
DOVE 4 20 Dec 21:04:44 21:08:51 71° 258° (WSW) 21:13:08 437.250
CUBEBUG 2 20 Dec 21:10:47 21:14:53 54° 70° (ENE) 21:19:08 437.445
CANX-2 20 Dec 21:18:35 21:22:21 30° 265° (W) 21:26:10 2200.000
ZACube-1 20 Dec 21:20:39 21:24:43 51° 70° (ENE) 21:28:55 437.345
VELOX 1 20 Dec 21:23:14 21:27:15 35° 66° (ENE) 21:31:17 145.980
ESTCUBE 1 20 Dec 21:27:22 21:30:37 20° 59° (ENE) 21:33:53 437.505/2401.250
CINEMA 3 20 Dec 21:28:44 21:32:53 67° 258° (WSW) 21:37:12 145.822/145.860
COMPASS 1 20 Dec 21:40:04 21:43:39 26° 266° (W) 21:47:17 437.405
CUSAT 1 20 Dec 21:42:24 21:49:25 46° 268° (W) 21:57:20 437.405
SEEDS 20 Dec 21:46:24 21:49:37 21° 269° (W) 21:52:52 437.485
FUNcube-1 20 Dec 21:47:12 21:51:24 90° 88° (E) 21:55:44 145.935
UWE-3 20 Dec 21:48:29 21:52:41 76° 257° (WSW) 21:57:02 435.000/436.395/437.385
CUTE 1.7 + AOD 2 20 Dec 21:50:36 21:53:27 17° 271° (W) 21:56:19 437.475
DELFI C3 20 Dec 21:54:47 21:58:43 43° 262° (W) 22:02:41 145.870
BRITE-PL 20 Dec 21:55:10 21:57:24 14° 272° (W) 21:59:39 437.365/2234.400
PCSat 20 Dec 21:55:34 22:00:49 46° 43° (NE) 22:06:02 145.827
50 SAT 20 Dec 21:55:59 21:59:56 57° 71° (ENE) 22:03:57 437.505
RS-15 20 Dec 21:57:23 22:08:00 51° 245° (WSW) 22:19:05 29.354- 29.394
BEESAT 3 20 Dec 21:58:19 22:02:31 78° 231° (SW) 22:06:40 437.485
YUBILEINY 20 Dec 22:03:31 22:06:38 12° 66° (ENE) 22:09:44 435.215
DX 1 20 Dec 22:03:53 22:07:56 37° 262° (W) 22:12:00 434.975-435.025
AISAT 20 Dec 22:06:04 22:10:30 87° 74° (ENE) 22:14:57 437.250
AIST 2 20 Dec 22:06:10 22:10:28 64° 45° (NE) 22:14:43 435.215
CUBEBUG 1 20 Dec 22:11:36 22:15:42 41° 68° (ENE) 22:19:48 437.445
SO-50 20 Dec 22:12:37 22:17:13 83° 130° (SE) 22:21:59 436.795
ANTELSAT 20 Dec 22:13:21 22:16:44 19° 90° (E) 22:20:08 437.575/2403.000
QB50P1 20 Dec 22:19:14 22:21:12 13° 87° (E) 22:23:10 145.935-145.965
HUMSAT D 20 Dec 22:19:41 22:23:49 69° 258° (WSW) 22:28:02 437.325/437.525
GOMX 1 20 Dec 22:21:58 22:23:05 11° 275° (W) 22:24:12 467.674
Oscar 11 20 Dec 22:27:10 22:30:24 20° 269° (W) 22:33:41 145.826/435.025
UKube-1 20 Dec 22:35:47 22:39:02 21° 268° (W) 22:42:18 .
DANDE 20 Dec 22:35:51 22:41:45 26° 275° (W) 22:48:19 436.750
BEESAT 2 20 Dec 22:38:36 22:42:33 39° 238° (WSW) 22:46:25 435.950
POPSAT HIP 1 20 Dec 22:46:50 22:50:17 23° 93° (E) 22:53:44 437.405
TIGRISAT 20 Dec 22:48:05 22:52:28 37° 97° (E) 22:56:50 435.000
CUBEBUG 2 20 Dec 22:48:59 22:51:59 19° 270° (W) 22:55:03 437.445
HO-68 20 Dec 22:55:45 22:57:15 11° 280° (W) 22:58:46 435.675
ZACube-1 20 Dec 22:58:18 23:01:26 20° 269° (W) 23:04:37 437.345
VELOX 1 20 Dec 22:59:57 23:03:53 31° 264° (W) 23:07:50 145.980
BEESAT 20 Dec 23:00:19 23:00:45 10° 49° (NE) 23:01:11 436.000
ESTCUBE 1 20 Dec 23:02:34 23:07:05 65° 258° (WSW) 23:11:37 437.505/2401.250
BUGSAT 1 20 Dec 23:12:19 23:15:59 32° 96° (E) 23:19:39 437.445
DUCHIFAT 1 20 Dec 23:14:20 23:18:23 42° 98° (E) 23:22:26 145.980
TISAT 1 20 Dec 23:14:25 23:18:27 47° 69° (ENE) 23:22:31 437.305
UNISAT 6 20 Dec 23:17:14 23:21:57 69° 102° (ESE) 23:26:39 437.425
SPROUT 20 Dec 23:18:31 23:22:38 48° 69° (ENE) 23:26:46 437.525
FUNcube-1 20 Dec 23:27:05 23:28:28 11° 275° (W) 23:29:52 145.935
QB50P2 20 Dec 23:28:00 23:32:14 58° 101° (E) 23:36:28 145.880/145.840
CUSAT 1 20 Dec 23:29:38 23:31:02 11° 287° (WNW) 23:32:28 437.405
50 SAT 20 Dec 23:32:55 23:35:33 17° 270° (W) 23:38:11 437.505
POLYITAN 1 20 Dec 23:36:55 23:41:13 71° 103° (ESE) 23:45:30 437.675
BEESAT 3 20 Dec 23:38:30 23:39:58 12° 250° (WSW) 23:41:26 437.485
NANOSAT C BR1 20 Dec 23:38:55 23:43:11 74° 103° (ESE) 23:47:26 145.865
PCSat 20 Dec 23:39:10 23:44:13 40° 244° (WSW) 23:49:14 145.827
AUBIESAT-1 20 Dec 23:41:16 23:44:31 18° 50° (NE) 23:47:45 437.475
AIST 2 20 Dec 23:45:27 23:48:43 21° 245° (WSW) 23:51:57 435.215
AISAT 20 Dec 23:45:51 23:47:46 13° 273° (W) 23:49:42 437.250
CUBEBUG 1 20 Dec 23:48:34 23:52:13 26° 266° (W) 23:55:53 437.445
ANTELSAT 20 Dec 23:49:17 23:53:57 64° 288° (WNW) 23:58:38 437.575/2403.000
YUBILEINY 20 Dec 23:52:55 00:01:19 54° 90° (E) 00:09:42 435.215
QB50P1 20 Dec 23:53:24 23:57:40 81° 286° (WNW) 00:01:57 145.935-145.965
SO-50 20 Dec 23:54:19 23:58:19 27° 332° (NNW) 00:02:25 436.795
M-CUBED/EXP-1 PRIME 21 Dec 00:05:57 00:10:06 28° 56° (NE) 00:14:15 437.505
SWISSCUBE 21 Dec 00:08:22 00:12:43 35° 64° (ENE) 00:17:04 437.505
ITUPSAT 1 21 Dec 00:09:02 00:13:20 33° 64° (ENE) 00:17:38 437.325
RS-15 21 Dec 00:13:47 00:17:28 12° 269° (W) 00:21:13 29.354- 29.394
POPSAT HIP 1 21 Dec 00:22:20 00:26:23 43° 292° (WNW) 00:30:26 437.405
TIGRISAT 21 Dec 00:24:58 00:29:10 33° 295° (WNW) 00:33:22 435.000
BEESAT 21 Dec 00:32:55 00:37:34 52° 69° (ENE) 00:42:15 436.000
BUGSAT 1 21 Dec 00:47:55 00:51:27 29° 295° (WNW) 00:54:59 437.445
DUCHIFAT 1 21 Dec 00:50:35 00:54:05 25° 297° (WNW) 00:57:35 145.980
TISAT 1 21 Dec 00:51:19 00:54:32 21° 268° (W) 00:57:46 437.305
UNISAT 6 21 Dec 00:54:54 00:58:17 20° 301° (WNW) 01:01:42 437.425
SPROUT 21 Dec 00:55:42 00:58:59 21° 268° (W) 01:02:18 437.525
QB50P2 21 Dec 01:04:43 01:07:48 20° 300° (WNW) 01:10:53 145.880/145.840
O/OREOS (USA 219) 21 Dec 01:05:50 01:10:08 50° 111° (ESE) 01:14:27 437.305
POLYITAN 1 21 Dec 01:13:56 01:16:41 17° 302° (WNW) 01:19:26 437.675
AUBIESAT-1 21 Dec 01:13:56 01:18:49 86° 68° (ENE) 01:23:44 437.475
NANOSAT C BR1 21 Dec 01:15:55 01:18:34 16° 302° (WNW) 01:21:13 145.865
Oscar 19 21 Dec 01:20:36 01:25:03 28° 93° (E) 01:29:27 437.125/150
STARS 21 Dec 01:27:16 01:31:02 29° 63° (ENE) 01:34:50 437.465
ANTELSAT 21 Dec 01:28:12 01:29:53 12° 308° (NW) 01:31:35 437.575/2403.000
QB50P1 21 Dec 01:31:04 01:32:53 13° 305° (NW) 01:34:42 145.935-145.965
KKS-1 21 Dec 01:31:16 01:35:26 43° 67° (ENE) 01:39:39 437.445
SO-50 21 Dec 01:37:24 01:40:23 16° 356° (N) 01:43:25 436.795
ITAMSAT 1 21 Dec 01:38:01 01:41:09 16° 87° (E) 01:44:16 435.822/435.867
M-CUBED/EXP-1 PRIME 21 Dec 01:40:02 01:44:50 55° 254° (WSW) 01:49:40 437.505
SWISSCUBE 21 Dec 01:46:10 01:50:34 36° 263° (W) 01:55:00 437.505
ITUPSAT 1 21 Dec 01:46:41 01:51:10 38° 263° (W) 01:55:41 437.325
YUBILEINY 21 Dec 01:50:10 01:58:24 44° 293° (WNW) 02:06:38 435.215
AIST 1 21 Dec 02:11:51 02:13:27 12° 59° (ENE) 02:15:03
BEESAT 21 Dec 02:11:52 02:15:43 24° 268° (W) 02:19:36 436.000
MOZHAYETS 4 21 Dec 02:45:59 02:48:07 13° 54° (NE) 02:50:15
O/OREOS (USA 219) 21 Dec 02:45:59 02:49:47 27° 312° (NW) 02:53:36 437.305
HORYU 2 21 Dec 02:49:25 02:52:16 16° 89° (E) 02:55:07 437.375
AUBIESAT-1 21 Dec 02:51:20 02:54:20 16° 267° (W) 02:57:22 437.475
Oscar 19 21 Dec 02:59:36 03:04:39 51° 292° (WNW) 03:09:40 437.125/150
STARS 21 Dec 03:03:19 03:07:25 38° 262° (W) 03:11:33 437.465
KKS-1 21 Dec 03:08:34 03:12:16 25° 266° (W) 03:15:59 437.445
Gurwin Techsat 1B 21 Dec 03:13:42 03:18:59 63° 102° (ESE) 03:24:15 435.225
ITAMSAT 1 21 Dec 03:16:08 03:21:21 86° 287° (WNW) 03:26:31 435.822/435.867
SO-50 21 Dec 03:18:54 03:22:37 22° 21° (NNE) 03:26:23 436.795
AO-7 21 Dec 03:43:16 03:50:12 28° 91° (E) 03:57:04 29.400- 29.500
AIST 1 21 Dec 03:47:34 03:51:53 85° 81° (E) 03:56:09
YUBILEINY 21 Dec 03:54:41 03:58:13 13° 321° (NW) 04:01:45 435.215
GONETS M04 21 Dec 03:56:47 04:01:19 15° 69° (ENE) 04:05:49
JAS-2 21 Dec 04:16:56 04:20:03 15° 83° (E) 04:23:02 435.910
MOZHAYETS 4 21 Dec 04:19:55 04:24:34 74° 73° (ENE) 04:29:14
VERMONT LUNAR 21 Dec 04:21:34 04:23:08 13° 167° (SSE) 04:24:42 437.305
HORYU 2 21 Dec 04:24:55 04:29:27 71° 288° (WNW) 04:33:57 437.375
STRAND 1 21 Dec 04:32:14 04:34:49 14° 51° (NE) 04:37:24 437.568
PHONESAT 2.4 21 Dec 04:37:57 04:39:30 12° 165° (SSE) 04:41:03 2401.200-2431.200
Oscar 19 21 Dec 04:41:33 04:42:52 11° 313° (NW) 04:44:11 437.125/150
PRISM 21 Dec 04:53:44 04:57:27 31° 65° (ENE) 05:01:11 437.425
Gurwin Techsat 1B 21 Dec 04:54:19 04:58:35 25° 302° (WNW) 05:02:51 435.225
ITAMSAT 1 21 Dec 04:56:52 05:00:08 17° 307° (NW) 05:03:25 435.822/435.867
SO-50 21 Dec 04:59:17 05:04:06 60° 43° (NE) 05:08:58 436.795
AIST 1 21 Dec 05:27:20 05:28:51 12° 279° (W) 05:30:21
AO-7 21 Dec 05:35:30 05:43:55 82° 293° (WNW) 05:52:17 29.400- 29.500
CUBESAT XI-V 21 Dec 05:44:43 05:49:11 46° 69° (ENE) 05:53:38 437.345
GONETS M04 21 Dec 05:47:36 05:56:15 63° 92° (E) 06:04:56
VERMONT LUNAR 21 Dec 05:58:29 06:00:37 15° 184° (S) 06:02:45 437.305
MOZHAYETS 4 21 Dec 05:59:27 06:02:20 16° 272° (W) 06:05:15
JAS-2 21 Dec 06:00:23 06:06:16 88° 105° (ESE) 06:11:35 435.910
HORYU 2 21 Dec 06:03:30 06:05:20 12° 307° (NW) 06:07:09 437.375
STRAND 1 21 Dec 06:08:04 06:13:09 70° 71° (ENE) 06:18:14 437.568
PHONESAT 2.4 21 Dec 06:15:02 06:17:20 16° 182° (S) 06:19:38 2401.200-2431.200
Cubesat XI-IV 21 Dec 06:15:45 06:20:30 32° 95° (E) 06:25:13 437.490
PRISM 21 Dec 06:29:06 06:32:57 33° 263° (W) 06:36:49 437.425
SO-50 21 Dec 06:40:15 06:44:25 28° 243° (WSW) 06:48:34 436.795
CUTE-I 21 Dec 06:48:36 06:53:51 57° 101° (E) 06:59:04 437.470
CUBESAT XI-V 21 Dec 07:22:58 07:26:50 25° 267° (W) 07:30:43 437.345
AO-7 21 Dec 07:29:01 07:35:40 28° 316° (NW) 07:42:18 29.400- 29.500
GONETS M04 21 Dec 07:45:32 07:53:38 39° 296° (WNW) 08:01:46
JAS-2 21 Dec 07:46:32 07:50:33 19° 309° (NW) 07:54:20 435.910
STRAND 1 21 Dec 07:49:11 07:52:51 20° 270° (W) 07:56:33 437.568
PHONESAT 2.4 21 Dec 07:54:26 07:55:08 10° 199° (SSW) 07:55:50 2401.200-2431.200
Cubesat XI-IV 21 Dec 07:55:42 08:00:46 46° 294° (WNW) 08:05:48 437.490
YUBILEINY 21 Dec 08:02:31 08:04:04 11° 34° (NE) 08:05:37 435.215
BRITE-PL 21 Dec 08:13:56 08:16:48 16° 89° (E) 08:19:45 437.365/2234.400
TIGRISAT 21 Dec 08:20:20 08:20:26 10° 50° (NE) 08:20:33 435.000
HO-68 21 Dec 08:23:15 08:28:55 25° 90° (E) 08:34:32 435.675
CUTE-I 21 Dec 08:29:12 08:33:38 28° 301° (WNW) 08:38:03 437.470
GOMX 1 21 Dec 08:36:42 08:40:05 19° 90° (E) 08:43:36 467.674
AAUSAT CUBESAT 2 21 Dec 08:43:28 08:46:01 16° 88° (E) 08:48:34 437.432
UNISAT 6 21 Dec 08:46:43 08:49:36 17° 57° (ENE) 08:52:31 437.425
QB50P2 21 Dec 08:53:04 08:54:59 13° 55° (NE) 08:56:54 145.880/145.840
DOVE 4 21 Dec 08:58:34 09:02:20 23° 92° (E) 09:06:14 437.250
CANX-2 21 Dec 08:58:39 09:02:37 34° 96° (E) 09:06:33 2200.000
POLYITAN 1 21 Dec 09:01:32 09:03:59 15° 57° (ENE) 09:06:26 437.675
NANOSAT C BR1 21 Dec 09:03:04 09:05:32 15° 57° (ENE) 09:08:01 145.865
QB50P1 21 Dec 09:16:52 09:19:57 20° 60° (ENE) 09:23:02 145.935-145.965
ANTELSAT 21 Dec 09:17:28 09:21:19 30° 63° (ENE) 09:25:16 437.575/2403.000
CUSAT 1 21 Dec 09:17:35 09:21:07 28° 85° (E) 09:25:37 437.405
COMPASS 1 21 Dec 09:18:22 09:22:20 36° 97° (E) 09:26:16 437.405
CINEMA 3 21 Dec 09:18:42 09:22:23 22° 91° (E) 09:26:09 145.822/145.860
AO-7 21 Dec 09:23:21 09:25:40 11° 342° (NNW) 09:28:00 29.400- 29.500
SEEDS 21 Dec 09:24:49 09:29:01 49° 99° (E) 09:33:10 437.485
CUTE 1.7 + AOD 2 21 Dec 09:29:12 09:33:30 62° 101° (E) 09:37:46 437.475
DELFI C3 21 Dec 09:30:56 09:34:00 20° 91° (E) 09:37:03 145.870
O/OREOS (USA 219) 21 Dec 09:31:31 09:35:41 36° 52° (NE) 09:39:52 437.305
FUNcube-1 21 Dec 09:32:12 09:34:30 14° 87° (E) 09:36:48 145.935
UWE-3 21 Dec 09:34:18 09:37:19 17° 89° (E) 09:40:21 435.000/436.395/437.385
Cubesat XI-IV 21 Dec 09:39:21 09:39:37 10° 315° (NW) 09:39:53 437.490
POPSAT HIP 1 21 Dec 09:44:45 09:48:33 34° 66° (ENE) 09:52:23 437.405
DX 1 21 Dec 09:47:21 09:50:59 25° 94° (E) 09:54:36 434.975-435.025
BRITE-PL 21 Dec 09:51:11 09:55:48 79° 286° (WNW) 10:00:47 437.365/2234.400
GONETS M04 21 Dec 09:51:12 09:53:50 11° 325° (NW) 09:56:27
TIGRISAT 21 Dec 09:51:55 09:56:13 58° 71° (ENE) 10:00:40 435.000
AISAT 21 Dec 09:54:10 09:55:54 12° 87° (E) 09:57:38 437.250
YUBILEINY 21 Dec 09:56:28 10:04:21 36° 63° (ENE) 10:12:12 435.215
MaSat-1 21 Dec 09:57:43 09:59:50 36° 306° (NW) 10:01:55 437.345
HUMSAT D 21 Dec 10:00:27 10:02:58 15° 88° (E) 10:05:28 437.325/437.525
BUGSAT 1 21 Dec 10:07:28 10:11:21 45° 69° (ENE) 10:15:14 437.445
Oscar 11 21 Dec 10:08:08 10:12:26 53° 100° (E) 10:16:42 145.826/435.025
HO-68 21 Dec 10:10:15 10:17:27 81° 291° (WNW) 10:24:35 435.675
DUCHIFAT 1 21 Dec 10:11:57 10:16:05 61° 71° (ENE) 10:20:15 145.980
DANDE 21 Dec 10:12:25 10:16:14 73° 99° (E) 10:21:31 436.750
GOMX 1 21 Dec 10:13:57 10:18:35 67° 288° (WNW) 10:23:33 467.674
UKube-1 21 Dec 10:17:14 10:21:27 46° 100° (E) 10:25:37 .
AAUSAT CUBESAT 2 21 Dec 10:17:55 10:22:10 67° 287° (WNW) 10:26:22 437.432
RS-15 21 Dec 10:20:14 10:26:36 18° 96° (E) 10:32:58 29.354- 29.394
UNISAT 6 21 Dec 10:21:26 10:25:50 76° 257° (WSW) 10:30:24 437.425
QB50P2 21 Dec 10:26:01 10:30:14 85° 74° (ENE) 10:34:30 145.880/145.840
CUBEBUG 2 21 Dec 10:33:11 10:37:47 64° 102° (ESE) 10:42:29 437.445
CANX-2 21 Dec 10:34:42 10:38:32 31° 295° (WNW) 10:42:20 2200.000
POLYITAN 1 21 Dec 10:35:10 10:39:23 79° 257° (WSW) 10:43:39 437.675
DOVE 4 21 Dec 10:35:47 10:40:23 56° 289° (WNW) 10:45:14 437.250
NANOSAT C BR1 21 Dec 10:36:41 10:40:53 77° 257° (WSW) 10:45:08 145.865
ZACube-1 21 Dec 10:40:25 10:44:53 56° 100° (E) 10:49:23 437.345
VELOX 1 21 Dec 10:45:16 10:49:19 34° 97° (E) 10:53:22 145.980
ESTCUBE 1 21 Dec 10:51:14 10:54:27 19° 90° (E) 10:57:38 437.505/2401.250
QB50P1 21 Dec 10:51:22 10:55:30 55° 259° (W) 10:59:40 145.935-145.965
ANTELSAT 21 Dec 10:53:54 10:58:01 38° 263° (W) 11:02:17 437.575/2403.000
COMPASS 1 21 Dec 10:54:17 10:57:58 29° 295° (WNW) 11:01:38 437.405
CINEMA 3 21 Dec 10:55:18 10:59:54 57° 289° (WNW) 11:04:40 145.822/145.860
CUSAT 1 21 Dec 11:00:03 11:03:58 38° 295° (WNW) 11:09:09 437.405
SEEDS 21 Dec 11:01:12 11:04:35 23° 298° (WNW) 11:07:56 437.485
DELFI C3 21 Dec 11:05:33 11:09:33 49° 290° (WNW) 11:13:31 145.870
CUTE 1.7 + AOD 2 21 Dec 11:05:59 11:09:02 19° 300° (WNW) 11:12:05 437.475
50 SAT 21 Dec 11:06:25 11:10:28 49° 100° (E) 11:14:30 437.505
Oscar 19 21 Dec 11:06:35 11:08:57 13° 50° (NE) 11:11:20 437.125/150
FUNcube-1 21 Dec 11:06:55 11:11:27 85° 285° (WNW) 11:16:02 145.935
UWE-3 21 Dec 11:09:46 11:14:19 70° 287° (WNW) 11:18:57 435.000/436.395/437.385
O/OREOS (USA 219) 21 Dec 11:11:00 11:15:06 35° 252° (WSW) 11:19:12 437.305
POPSAT HIP 1 21 Dec 11:20:49 11:24:30 29° 265° (W) 11:28:14 437.405
DX 1 21 Dec 11:23:17 11:27:24 42° 293° (WNW) 11:31:29 434.975-435.025
AISAT 21 Dec 11:28:45 11:33:13 89° 105° (ESE) 11:37:40 437.250
TIGRISAT 21 Dec 11:30:13 11:33:23 19° 270° (W) 11:36:37 435.000
BRITE-PL 21 Dec 11:31:26 11:33:42 14° 304° (NW) 11:36:03 437.365/2234.400
CUBEBUG 1 21 Dec 11:31:47 11:35:54 40° 98° (E) 11:39:59 437.445
HUMSAT D 21 Dec 11:34:56 11:39:16 72° 287° (WNW) 11:43:36 437.325/437.525
BUGSAT 1 21 Dec 11:43:58 11:47:05 21° 267° (W) 11:50:12 437.445
Oscar 11 21 Dec 11:44:57 11:48:18 22° 299° (WNW) 11:51:39 145.826/435.025
DUCHIFAT 1 21 Dec 11:49:38 11:52:22 17° 270° (W) 11:55:06 145.980
YUBILEINY 21 Dec 11:53:13 12:01:48 66° 267° (W) 12:10:21 435.215
UKube-1 21 Dec 11:53:53 11:57:23 24° 299° (WNW) 12:00:52 .
GOMX 1 21 Dec 11:54:13 11:55:59 12° 306° (NW) 11:57:47 467.674
AAUSAT CUBESAT 2 21 Dec 11:56:07 11:57:01 11° 307° (NW) 11:57:55 437.432
DANDE 21 Dec 11:57:54 12:00:47 17° 309° (NW) 12:04:14 436.750
HO-68 21 Dec 11:58:53 12:04:13 23° 312° (NW) 12:09:32 435.675
UNISAT 6 21 Dec 12:03:13 12:03:30 10° 276° (W) 12:03:46 437.425
QB50P2 21 Dec 12:05:05 12:06:47 12° 273° (W) 12:08:29 145.880/145.840
CUBEBUG 2 21 Dec 12:10:42 12:14:06 21° 300° (WNW) 12:17:34 437.445
DOVE 4 21 Dec 12:16:37 12:17:16 10° 308° (NW) 12:17:56 437.250
ZACube-1 21 Dec 12:17:28 12:20:56 22° 299° (WNW) 12:24:27 437.345
VELOX 1 21 Dec 12:21:57 12:25:53 32° 295° (WNW) 12:29:48 145.980
ESTCUBE 1 21 Dec 12:27:16 12:31:43 59° 289° (WNW) 12:36:08 437.505/2401.250
TISAT 1 21 Dec 12:30:06 12:34:09 43° 99° (E) 12:38:12 437.305
CINEMA 3 21 Dec 12:35:17 12:36:13 11° 308° (NW) 12:37:09 145.822/145.860
SPROUT 21 Dec 12:36:14 12:40:25 47° 99° (E) 12:44:35 437.525
BEESAT 2 21 Dec 12:40:52 12:42:20 12° 110° (ESE) 12:43:49 435.950
